Time,TemperatureF,DewpointF,PressureIn,WindDirection,WindDirectionDegrees,WindSpeedMPH,WindSpeedGustMPH,Humidity,HourlyPrecipIn,Conditions,Clouds,dailyrainin,SoftwareType,DateUTC
2013-06-25 00:12:00,78.0,22.0,-100.00,SW,220,18.0,23.0,12,0.00,,,-99.99,,2013-06-25 00:12:00,
2013-06-25 00:45:00,78.0,24.0,-100.00,SW,227,23.0,28.0,13,0.00,,,-99.99,,2013-06-25 00:45:00,
2013-06-25 00:54:00,76.0,22.0,-100.00,WSW,240,16.0,26.0,13,0.00,,,-99.99,,2013-06-25 00:54:00,
2013-06-25 01:03:00,75.0,25.0,-100.00,WSW,240,17.0,24.0,15,0.00,,,-99.99,,2013-06-25 01:03:00,
2013-06-25 01:14:00,75.0,24.0,-100.00,WSW,237,12.0,21.0,15,0.00,,,-99.99,,2013-06-25 01:14:00,
2013-06-25 01:34:00,74.0,26.0,-100.00,SW,220,17.0,21.0,16,0.00,,,-99.99,,2013-06-25 01:34:00,
2013-06-25 01:44:00,75.0,22.0,-100.00,SSW,205,26.0,30.0,14,0.00,,,-99.99,,2013-06-25 01:44:00,
2013-06-25 01:54:00,74.0,24.0,-100.00,SW,219,21.0,25.0,15,0.00,,,-99.99,,2013-06-25 01:54:00,
2013-06-25 02:14:00,74.0,23.0,-100.00,SW,215,19.0,26.0,15,0.00,,,-99.99,,2013-06-25 02:14:00,
2013-06-25 02:43:00,72.0,26.0,-100.00,WSW,244,21.0,29.0,18,0.00,,,-99.99,,2013-06-25 02:43:00,
2013-06-25 02:55:00,71.0,27.0,-100.00,WSW,253,14.0,27.0,19,0.00,,,-99.99,,2013-06-25 02:55:00,
2013-06-25 03:49:00,68.0,29.0,-100.00,SW,233,20.0,25.0,23,0.00,,,-99.99,,2013-06-25 03:49:00,
2013-06-25 04:11:00,67.0,30.0,-100.00,WSW,251,22.0,35.0,24,0.00,,,-99.99,,2013-06-25 04:11:00,
2013-06-25 04:34:00,67.0,31.0,-100.00,SW,233,30.0,43.0,26,0.00,,,-99.99,,2013-06-25 04:34:00,
2013-06-25 04:42:00,66.0,32.0,-100.00,WSW,248,22.0,37.0,28,0.00,,,-99.99,,2013-06-25 04:42:00,
2013-06-25 05:01:00,65.0,32.0,-100.00,WSW,243,20.0,28.0,29,0.00,,,-99.99,,2013-06-25 05:01:00,
2013-06-25 05:11:00,64.0,33.0,-100.00,WSW,243,32.0,49.0,31,0.00,,,-99.99,,2013-06-25 05:11:00,
2013-06-25 05:44:00,63.0,35.0,-100.00,WSW,240,31.0,47.0,35,0.00,,,-99.99,,2013-06-25 05:44:00,
2013-06-25 05:52:00,63.0,34.0,-100.00,WSW,240,34.0,46.0,34,0.00,,,-99.99,,2013-06-25 05:52:00,
2013-06-25 06:11:00,61.0,36.0,-100.00,WSW,248,21.0,31.0,38,0.00,,,-99.99,,2013-06-25 06:11:00,
2013-06-25 06:43:00,60.0,36.0,-100.00,WSW,248,22.0,31.0,40,0.00,,,-99.99,,2013-06-25 06:43:00,
2013-06-25 07:02:00,59.0,39.0,-100.00,WSW,244,18.0,33.0,47,0.00,,,-99.99,,2013-06-25 07:02:00,
2013-06-25 07:11:00,58.0,39.0,-100.00,WSW,253,19.0,30.0,50,0.00,,,-99.99,,2013-06-25 07:11:00,
2013-06-25 07:33:00,57.0,39.0,-100.00,WSW,246,22.0,28.0,51,0.00,,,-99.99,,2013-06-25 07:33:00,
2013-06-25 07:43:00,57.0,39.0,-100.00,WSW,244,22.0,29.0,51,0.00,,,-99.99,,2013-06-25 07:43:00,
2013-06-25 08:01:00,57.0,39.0,-100.00,WSW,241,19.0,26.0,51,0.00,,,-99.99,,2013-06-25 08:01:00,
2013-06-25 08:34:00,56.0,40.0,-100.00,SSW,210,14.0,17.0,55,0.00,,,-99.99,,2013-06-25 08:34:00,
2013-06-25 08:43:00,55.0,41.0,-100.00,SSW,213,24.0,29.0,58,0.00,,,-99.99,,2013-06-25 08:43:00,
2013-06-25 09:43:00,54.0,42.0,-100.00,SW,216,8.0,14.0,63,0.00,,,-99.99,,2013-06-25 09:43:00,
2013-06-25 10:01:00,55.0,40.0,-100.00,SW,232,10.0,15.0,56,0.00,,,-99.99,,2013-06-25 10:01:00,
2013-06-25 10:33:00,57.0,38.0,-100.00,West,263,17.0,21.0,48,0.00,,,-99.99,,2013-06-25 10:33:00,
2013-06-25 10:42:00,57.0,38.0,-100.00,WSW,248,12.0,16.0,47,0.00,,,-99.99,,2013-06-25 10:42:00,
2013-06-25 11:11:00,56.0,38.0,-100.00,SW,226,18.0,22.0,50,0.00,,,-99.99,,2013-06-25 11:11:00,
2013-06-25 11:43:00,57.0,38.0,-100.00,SW,222,24.0,30.0,49,0.00,,,-99.99,,2013-06-25 11:43:00,
2013-06-25 12:01:00,56.0,38.0,-100.00,SSW,209,24.0,27.0,51,0.00,,,-99.99,,2013-06-25 12:01:00,
2013-06-25 12:43:00,56.0,39.0,-100.00,SSW,202,24.0,28.0,53,0.00,,,-99.99,,2013-06-25 12:43:00,
2013-06-25 13:01:00,55.0,39.0,-100.00,South,188,21.0,23.0,56,0.00,,,-99.99,,2013-06-25 13:01:00,
2013-06-25 14:34:00,61.0,38.0,-100.00,WSW,247,22.0,28.0,42,0.00,,,-99.99,,2013-06-25 14:34:00,
2013-06-25 14:43:00,61.0,38.0,-100.00,WSW,250,21.0,26.0,42,0.00,,,-99.99,,2013-06-25 14:43:00,
2013-06-25 15:11:00,62.0,38.0,-100.00,WSW,253,17.0,24.0,41,0.00,,,-99.99,,2013-06-25 15:11:00,
2013-06-25 15:44:00,61.0,40.0,-100.00,SSW,210,23.0,29.0,45,0.00,,,-99.99,,2013-06-25 15:44:00,
2013-06-25 16:03:00,63.0,40.0,-100.00,SW,223,24.0,30.0,43,0.00,,,-99.99,,2013-06-25 16:03:00,
2013-06-25 16:12:00,63.0,40.0,-100.00,SW,216,24.0,27.0,42,0.00,,,-99.99,,2013-06-25 16:12:00,
2013-06-25 16:44:00,64.0,40.0,-100.00,SW,220,24.0,29.0,42,0.00,,,-99.99,,2013-06-25 16:44:00,
2013-06-25 17:44:00,66.0,39.0,-100.00,West,260,19.0,26.0,38,0.00,,,-99.99,,2013-06-25 17:44:00,
2013-06-25 18:02:00,66.0,38.0,-100.00,SW,233,20.0,26.0,35,0.00,,,-99.99,,2013-06-25 18:02:00,
2013-06-25 18:12:00,67.0,37.0,-100.00,WSW,251,24.0,29.0,33,0.00,,,-99.99,,2013-06-25 18:12:00,
2013-06-25 18:44:00,67.0,36.0,-100.00,West,264,16.0,22.0,32,0.00,,,-99.99,,2013-06-25 18:44:00,
2013-06-25 19:44:00,71.0,34.0,-100.00,WSW,250,20.0,27.0,26,0.00,,,-99.99,,2013-06-25 19:44:00,
2013-06-25 20:02:00,71.0,33.0,-100.00,WSW,250,19.0,28.0,25,0.00,,,-99.99,,2013-06-25 20:02:00,
2013-06-25 20:42:00,73.0,35.0,-100.00,WSW,254,18.0,26.0,25,0.00,,,-99.99,,2013-06-25 20:42:00,
2013-06-25 21:11:00,72.0,33.0,-100.00,SW,219,27.0,31.0,24,0.00,,,-99.99,,2013-06-25 21:11:00,
2013-06-25 21:43:00,71.0,34.0,-100.00,WSW,253,16.0,21.0,26,0.00,,,-99.99,,2013-06-25 21:43:00,
2013-06-25 21:53:00,74.0,35.0,-100.00,WSW,257,14.0,24.0,25,0.00,,,-99.99,,2013-06-25 21:53:00,
2013-06-25 22:01:00,73.0,35.0,-100.00,WSW,250,14.0,18.0,25,0.00,,,-99.99,,2013-06-25 22:01:00,
2013-06-25 22:11:00,73.0,33.0,-100.00,WSW,254,18.0,29.0,23,0.00,,,-99.99,,2013-06-25 22:11:00,
2013-06-25 22:42:00,72.0,34.0,-100.00,WSW,244,17.0,26.0,25,0.00,,,-99.99,,2013-06-25 22:42:00,
2013-06-25 23:43:00,72.0,34.0,-100.00,West,260,19.0,26.0,25,0.00,,,-99.99,,2013-06-25 23:43:00,
2013-06-25 23:52:00,73.0,35.0,-100.00,WSW,258,22.0,26.0,25,0.00,,,-99.99,,2013-06-25 23:52:00,